STARLINK-32401, 61865

Orbit data source: Space-Track

STARLINK-32401, 61865 is a payload satellite owned by SpaceX/Seattle (US) in LEO that was launched on Thu, 07 Nov 2024 UTC via an FALCON 9 launch vehicle from the Air Force Eastern Test Range (AFETR). Payload-class satellites include a variety of spacecraft equipped with specific instruments for various scientific and technological missions. These include communications satellites like Starlink; space stations such as the ISS; scientific satellites like the Hubble; Earth observation satellites from companies like Planet Labs, Umbra, and HawkEye 360; GPS; miniature CubeSats for education and research; and military/defense satellites.

Loading next visibility...
Identifier
61865, 2024-202W
Orbit
LEO
Country
Flag of USUS
Related business
Manufacturer
SpaceX/Seattle
Mission
Operational Commercial Communications
Bus & Motor
STARLINK V2M, Unknown motor
Mass
730 kg wet, ~700 kg dry
Launch date (UTC)
2024-11-07 (2 years ago)
Launch vehicle
FALCON 9
Launch site
Air Force Eastern Test Range (AFETR)
Object type
Payload
Rocket body
Debris
Shape & HBR
Box + 2 Pan, 17.7 m
Radar Cross Section
33.884 m², Large (>1 m²)

Expand to show TLE details & history
Last TLE update: 22 hours ago

TLE from 22 hours ago
0 STARLINK-32401
1 61865U 24202W   26266.22268114  .00001123  00000-0  50343-4 0  9990
2 61865  43.0037 202.7795 0001104 273.2324  86.8402 15.27578889105549
Epoch: 2026-09-23T05:20Z
TLE epoch observation values (Epoch: 2026-09-23T05:20:39.650Z)
Latitude
0.00002°
Longitude
120.53742°
Altitude
482.787 km
Speed
7.626 km/s
True Right ascension
13h 31m 07s
True Declination
0° 00' 00"
Sunlit
Object was in daylight at epoch
Visualization orbit readout
Latitude
Unknown
Longitude
Unknown
Altitude
Unknown
Speed
Unknown
Apparent Right ascension
Unknown
Apparent Declination
Unknown
Sunlit
N/A
Visualization observer readout
Local Sidereal Time
20:46:10
Azimuth
Unknown
Elevation
Unknown
Doppler factor
Unknown
Orbital elements
Apogee altitude
485.755 km
Perigee altitude
484.239 km
Semi-major axis
6,863.134 km
Eccentricity
0.00011
Inclination
43.0037°
RAAN
202.7795°
Arg. of periapsis
273.2324°
True anomaly
86.85283°
Mean anomaly
86.8402°
Eccentric anomaly
86.84652°
Mean motion
3.81733 °/min
Orbital period
94.31 mins
BSTAR
0.000050343
Loading maneuver chart data...
Computing Atmospheric mass density...
Loading historical data...
Loading historical data...
Loading historical data...
Loading historical data...
Loading historical data...
Loading historical data...
Loading historical data...

Documentation

Showing up to 5 results
|